Time,TemperatureF,DewpointF,PressureIn,WindDirection,WindDirectionDegrees,WindSpeedMPH,WindSpeedGustMPH,Humidity,HourlyPrecipIn,Conditions,Clouds,dailyrainin,SoftwareType,DateUTC
2013-04-10 00:02:00,51.4,51.1,29.71,North,-999,-999.0,-999.0,99,-99.99,,,-99.99,meteohub,2013-04-10 05:02:00,
2013-04-10 00:07:00,50.7,50.4,29.71,North,-999,-999.0,-999.0,99,-99.99,,,-99.99,meteohub,2013-04-10 05:07:00,
2013-04-10 00:15:00,49.6,49.5,29.72,North,-999,-999.0,-999.0,99,-99.99,,,-99.99,meteohub,2013-04-10 05:15:00,
2013-04-10 00:21:00,49.1,48.9,29.74,North,-999,-999.0,-999.0,99,-99.99,,,-99.99,meteohub,2013-04-10 05:21:00,
2013-04-10 00:27:00,48.9,48.7,29.76,North,-999,-999.0,-999.0,99,-99.99,,,-99.99,meteohub,2013-04-10 05:27:00,
2013-04-10 00:32:00,48.9,48.7,29.75,North,-999,-999.0,-999.0,99,-99.99,,,-99.99,meteohub,2013-04-10 05:32:00,
2013-04-10 00:40:00,47.5,47.3,29.76,North,-999,-999.0,-999.0,99,-99.99,,,-99.99,meteohub,2013-04-10 05:40:00,
2013-04-10 00:46:00,47.1,46.9,29.76,North,-999,-999.0,-999.0,99,-99.99,,,-99.99,meteohub,2013-04-10 05:46:00,
2013-04-10 00:52:00,46.8,46.6,29.77,North,-999,-999.0,-999.0,99,-99.99,,,-99.99,meteohub,2013-04-10 05:52:00,
2013-04-10 00:58:00,45.9,45.7,29.77,North,-999,-999.0,-999.0,99,-99.99,,,-99.99,meteohub,2013-04-10 05:58:00,
2013-04-10 01:04:00,45.5,45.3,29.77,North,-999,-999.0,-999.0,99,-99.99,,,-99.99,meteohub,2013-04-10 06:04:00,
2013-04-10 01:10:00,45.3,45.1,29.78,North,-999,-999.0,-999.0,99,-99.99,,,-99.99,meteohub,2013-04-10 06:10:00,
2013-04-10 01:17:00,45.0,44.8,29.79,North,-999,-999.0,-999.0,99,-99.99,,,-99.99,meteohub,2013-04-10 06:17:00,
2013-04-10 01:22:00,44.1,43.9,29.80,North,-999,-999.0,-999.0,99,-99.99,,,-99.99,meteohub,2013-04-10 06:22:00,
2013-04-10 01:29:00,43.2,43.0,29.76,North,-999,-999.0,-999.0,99,-99.99,,,-99.99,meteohub,2013-04-10 06:29:00,
2013-04-10 01:35:00,43.2,43.0,29.79,North,-999,-999.0,-999.0,99,-99.99,,,-99.99,meteohub,2013-04-10 06:35:00,
2013-04-10 01:41:00,43.5,43.3,29.78,North,-999,-999.0,-999.0,99,-99.99,,,-99.99,meteohub,2013-04-10 06:41:00,
2013-04-10 01:47:00,43.7,43.5,29.78,North,-999,-999.0,-999.0,99,-99.99,,,-99.99,meteohub,2013-04-10 06:47:00,
2013-04-10 01:52:00,43.7,43.5,29.77,North,-999,-999.0,-999.0,99,-99.99,,,-99.99,meteohub,2013-04-10 06:52:00,
2013-04-10 01:57:00,43.9,43.7,29.76,North,-999,-999.0,-999.0,99,-99.99,,,-99.99,meteohub,2013-04-10 06:57:00,
2013-04-10 02:02:00,43.9,43.7,29.75,North,-999,-999.0,-999.0,99,-99.99,,,-99.99,meteohub,2013-04-10 07:02:00,
2013-04-10 02:09:00,44.1,43.9,29.74,North,-999,-999.0,-999.0,99,-99.99,,,-99.99,meteohub,2013-04-10 07:09:00,
2013-04-10 02:15:00,44.2,44.1,29.73,North,-999,-999.0,-999.0,99,-99.99,,,-99.99,meteohub,2013-04-10 07:15:00,
2013-04-10 02:21:00,44.2,44.1,29.71,North,-999,-999.0,-999.0,99,-99.99,,,-99.99,meteohub,2013-04-10 07:21:00,
2013-04-10 02:27:00,44.4,44.2,29.71,North,-999,-999.0,-999.0,99,-99.99,,,-99.99,meteohub,2013-04-10 07:27:00,
2013-04-10 02:33:00,45.0,44.8,29.70,North,-999,-999.0,-999.0,99,-99.99,,,-99.99,meteohub,2013-04-10 07:33:00,
2013-04-10 02:39:00,45.5,45.3,29.71,North,-999,-999.0,-999.0,99,-99.99,,,-99.99,meteohub,2013-04-10 07:39:00,
2013-04-10 02:45:00,45.7,45.5,29.71,North,-999,-999.0,-999.0,99,-99.99,,,-99.99,meteohub,2013-04-10 07:45:00,
2013-04-10 02:51:00,46.0,45.9,29.69,North,-999,-999.0,-999.0,99,-99.99,,,-99.99,meteohub,2013-04-10 07:51:00,
2013-04-10 02:57:00,46.2,46.0,29.69,North,-999,-999.0,-999.0,99,-99.99,,,-99.99,meteohub,2013-04-10 07:57:00,
2013-04-10 03:04:00,46.6,46.4,29.70,North,-999,-999.0,-999.0,99,-99.99,,,-99.99,meteohub,2013-04-10 08:04:00,
2013-04-10 03:10:00,46.8,46.6,29.68,North,-999,-999.0,-999.0,99,-99.99,,,-99.99,meteohub,2013-04-10 08:10:00,
2013-04-10 03:16:00,46.9,46.8,29.68,North,-999,-999.0,-999.0,99,-99.99,,,-99.99,meteohub,2013-04-10 08:16:00,
2013-04-10 03:22:00,47.1,46.9,29.72,North,-999,-999.0,-999.0,99,-99.99,,,-99.99,meteohub,2013-04-10 08:22:00,
2013-04-10 03:27:00,47.1,46.9,29.70,North,-999,-999.0,-999.0,99,-99.99,,,-99.99,meteohub,2013-04-10 08:27:00,
2013-04-10 03:32:00,47.1,46.9,29.71,North,-999,-999.0,-999.0,99,-99.99,,,-99.99,meteohub,2013-04-10 08:32:00,
2013-04-10 03:37:00,47.3,47.1,29.71,North,-999,-999.0,-999.0,99,-99.99,,,-99.99,meteohub,2013-04-10 08:37:00,
2013-04-10 03:42:00,47.3,47.1,29.73,North,-999,-999.0,-999.0,99,-99.99,,,-99.99,meteohub,2013-04-10 08:42:00,
2013-04-10 03:47:00,46.6,46.4,29.73,North,-999,-999.0,-999.0,99,-99.99,,,-99.99,meteohub,2013-04-10 08:47:00,
2013-04-10 03:53:00,45.9,45.7,29.73,North,-999,-999.0,-999.0,99,-99.99,,,-99.99,meteohub,2013-04-10 08:53:00,
2013-04-10 03:59:00,45.5,45.3,29.77,North,-999,-999.0,-999.0,99,-99.99,,,-99.99,meteohub,2013-04-10 08:59:00,
2013-04-10 04:05:00,44.8,44.6,29.74,North,-999,-999.0,-999.0,99,-99.99,,,-99.99,meteohub,2013-04-10 09:05:00,
2013-04-10 04:12:00,44.4,44.2,29.78,North,-999,-999.0,-999.0,99,-99.99,,,-99.99,meteohub,2013-04-10 09:12:00,
2013-04-10 04:17:00,44.2,44.1,29.78,North,-999,-999.0,-999.0,99,-99.99,,,-99.99,meteohub,2013-04-10 09:17:00,
2013-04-10 04:22:00,44.2,44.1,29.75,North,-999,-999.0,-999.0,99,-99.99,,,-99.99,meteohub,2013-04-10 09:22:00,
2013-04-10 04:27:00,43.9,43.7,29.76,North,-999,-999.0,-999.0,99,-99.99,,,-99.99,meteohub,2013-04-10 09:27:00,
2013-04-10 04:32:00,43.9,43.7,29.80,North,-999,-999.0,-999.0,99,-99.99,,,-99.99,meteohub,2013-04-10 09:32:00,
2013-04-10 04:39:00,43.7,43.5,29.81,North,-999,-999.0,-999.0,99,-99.99,,,-99.99,meteohub,2013-04-10 09:39:00,
2013-04-10 04:45:00,43.5,43.3,29.80,North,-999,-999.0,-999.0,99,-99.99,,,-99.99,meteohub,2013-04-10 09:45:00,
2013-04-10 04:52:00,43.3,43.2,29.80,North,-999,-999.0,-999.0,99,-99.99,,,-99.99,meteohub,2013-04-10 09:52:00,
2013-04-10 04:57:00,43.2,43.0,29.79,North,-999,-999.0,-999.0,99,-99.99,,,-99.99,meteohub,2013-04-10 09:57:00,
2013-04-10 05:04:00,42.8,42.6,29.78,North,-999,-999.0,-999.0,99,-99.99,,,-99.99,meteohub,2013-04-10 10:04:00,
2013-04-10 05:10:00,42.4,42.3,29.78,North,-999,-999.0,-999.0,99,-99.99,,,-99.99,meteohub,2013-04-10 10:10:00,
2013-04-10 05:16:00,42.3,42.1,29.78,North,-999,-999.0,-999.0,99,-99.99,,,-99.99,meteohub,2013-04-10 10:16:00,
2013-04-10 05:22:00,42.1,41.9,29.78,North,-999,-999.0,-999.0,99,-99.99,,,-99.99,meteohub,2013-04-10 10:22:00,
2013-04-10 05:28:00,42.3,42.1,29.80,North,-999,-999.0,-999.0,99,-99.99,,,-99.99,meteohub,2013-04-10 10:28:00,
2013-04-10 05:35:00,42.3,42.1,29.80,North,-999,-999.0,-999.0,99,-99.99,,,-99.99,meteohub,2013-04-10 10:35:00,
2013-04-10 05:41:00,42.1,41.9,29.79,North,-999,-999.0,-999.0,99,-99.99,,,-99.99,meteohub,2013-04-10 10:41:00,
2013-04-10 05:47:00,42.1,41.9,29.78,North,-999,-999.0,-999.0,99,-99.99,,,-99.99,meteohub,2013-04-10 10:47:00,
2013-04-10 05:53:00,41.9,41.7,29.80,North,-999,-999.0,-999.0,99,-99.99,,,-99.99,meteohub,2013-04-10 10:53:00,
2013-04-10 06:00:00,41.9,41.7,29.81,North,-999,-999.0,-999.0,99,-99.99,,,-99.99,meteohub,2013-04-10 11:00:00,
2013-04-10 06:06:00,41.9,41.7,29.81,North,-999,-999.0,-999.0,99,-99.99,,,-99.99,meteohub,2013-04-10 11:06:00,
2013-04-10 06:12:00,41.9,41.7,29.82,North,-999,-999.0,-999.0,99,-99.99,,,-99.99,meteohub,2013-04-10 11:12:00,
2013-04-10 06:18:00,41.9,41.7,29.81,North,-999,-999.0,-999.0,99,-99.99,,,-99.99,meteohub,2013-04-10 11:18:00,
2013-04-10 06:24:00,41.9,41.7,29.84,North,-999,-999.0,-999.0,99,-99.99,,,-99.99,meteohub,2013-04-10 11:24:00,
2013-04-10 06:30:00,41.9,41.7,29.82,North,-999,-999.0,-999.0,99,-99.99,,,-99.99,meteohub,2013-04-10 11:30:00,
2013-04-10 06:37:00,41.5,41.4,29.83,North,-999,-999.0,-999.0,99,-99.99,,,-99.99,meteohub,2013-04-10 11:37:00,
2013-04-10 06:43:00,41.5,41.4,29.83,North,-999,-999.0,-999.0,99,-99.99,,,-99.99,meteohub,2013-04-10 11:43:00,
2013-04-10 06:49:00,41.5,41.4,29.83,North,-999,-999.0,-999.0,99,-99.99,,,-99.99,meteohub,2013-04-10 11:49:00,
2013-04-10 06:55:00,41.4,41.2,29.81,North,-999,-999.0,-999.0,99,-99.99,,,-99.99,meteohub,2013-04-10 11:55:00,
2013-04-10 07:02:00,41.2,41.0,29.80,North,-999,-999.0,-999.0,99,-99.99,,,-99.99,meteohub,2013-04-10 12:02:00,
2013-04-10 07:07:00,41.4,41.2,29.80,North,-999,-999.0,-999.0,99,-99.99,,,-99.99,meteohub,2013-04-10 12:07:00,
2013-04-10 07:13:00,41.4,41.2,29.79,North,-999,-999.0,-999.0,99,-99.99,,,-99.99,meteohub,2013-04-10 12:13:00,
2013-04-10 07:19:00,41.4,41.2,29.78,North,-999,-999.0,-999.0,99,-99.99,,,-99.99,meteohub,2013-04-10 12:19:00,
2013-04-10 07:26:00,41.4,41.2,29.78,North,-999,-999.0,-999.0,99,-99.99,,,-99.99,meteohub,2013-04-10 12:26:00,
2013-04-10 07:32:00,41.4,41.2,29.80,North,-999,-999.0,-999.0,99,-99.99,,,-99.99,meteohub,2013-04-10 12:32:00,
2013-04-10 07:38:00,41.4,41.2,29.80,North,-999,-999.0,-999.0,99,-99.99,,,-99.99,meteohub,2013-04-10 12:38:00,
2013-04-10 07:44:00,41.4,41.2,29.81,North,-999,-999.0,-999.0,99,-99.99,,,-99.99,meteohub,2013-04-10 12:44:00,
2013-04-10 07:51:00,41.4,41.2,29.81,North,-999,-999.0,-999.0,99,-99.99,,,-99.99,meteohub,2013-04-10 12:51:00,
2013-04-10 07:57:00,41.4,41.2,29.82,North,-999,-999.0,-999.0,99,-99.99,,,-99.99,meteohub,2013-04-10 12:57:00,
2013-04-10 08:02:00,41.4,41.2,29.81,North,-999,-999.0,-999.0,99,-99.99,,,-99.99,meteohub,2013-04-10 13:02:00,
2013-04-10 08:07:00,41.5,41.4,29.82,North,-999,-999.0,-999.0,99,-99.99,,,-99.99,meteohub,2013-04-10 13:07:00,
2013-04-10 08:12:00,41.5,41.4,29.82,North,-999,-999.0,-999.0,99,-99.99,,,-99.99,meteohub,2013-04-10 13:12:00,
2013-04-10 08:17:00,41.5,41.4,29.83,North,-999,-999.0,-999.0,99,-99.99,,,-99.99,meteohub,2013-04-10 13:17:00,
2013-04-10 08:22:00,41.4,41.2,29.84,North,-999,-999.0,-999.0,99,-99.99,,,-99.99,meteohub,2013-04-10 13:22:00,
2013-04-10 08:28:00,41.4,41.2,29.84,North,-999,-999.0,-999.0,99,-99.99,,,-99.99,meteohub,2013-04-10 13:28:00,
2013-04-10 08:34:00,41.2,41.0,29.83,North,-999,-999.0,-999.0,99,-99.99,,,-99.99,meteohub,2013-04-10 13:34:00,
2013-04-10 08:40:00,41.0,40.8,29.84,North,-999,-999.0,-999.0,99,-99.99,,,-99.99,meteohub,2013-04-10 13:40:00,
2013-04-10 08:46:00,40.6,40.5,29.84,North,-999,-999.0,-999.0,99,-99.99,,,-99.99,meteohub,2013-04-10 13:46:00,
2013-04-10 08:52:00,40.5,40.3,29.85,North,-999,-999.0,-999.0,99,-99.99,,,-99.99,meteohub,2013-04-10 13:52:00,
2013-04-10 08:59:00,40.5,40.3,29.88,North,-999,-999.0,-999.0,99,-99.99,,,-99.99,meteohub,2013-04-10 13:59:00,
2013-04-10 09:05:00,40.5,40.3,29.88,North,-999,-999.0,-999.0,99,-99.99,,,-99.99,meteohub,2013-04-10 14:05:00,
2013-04-10 09:11:00,40.3,40.1,29.87,North,-999,-999.0,-999.0,99,-99.99,,,-99.99,meteohub,2013-04-10 14:11:00,
2013-04-10 09:17:00,39.9,39.7,29.81,North,-999,-999.0,-999.0,99,-99.99,,,-99.99,meteohub,2013-04-10 14:17:00,
2013-04-10 09:22:00,39.9,39.7,29.77,North,-999,-999.0,-999.0,99,-99.99,,,-99.99,meteohub,2013-04-10 14:22:00,
2013-04-10 09:27:00,39.7,39.6,29.81,North,-999,-999.0,-999.0,99,-99.99,,,-99.99,meteohub,2013-04-10 14:27:00,
2013-04-10 09:32:00,39.7,39.6,29.84,North,-999,-999.0,-999.0,99,-99.99,,,-99.99,meteohub,2013-04-10 14:32:00,
2013-04-10 09:38:00,39.6,39.4,29.80,North,-999,-999.0,-999.0,99,-99.99,,,-99.99,meteohub,2013-04-10 14:38:00,
2013-04-10 09:44:00,39.6,39.4,29.82,North,-999,-999.0,-999.0,99,-99.99,,,-99.99,meteohub,2013-04-10 14:44:00,
2013-04-10 09:50:00,39.6,39.4,29.84,North,-999,-999.0,-999.0,99,-99.99,,,-99.99,meteohub,2013-04-10 14:50:00,
2013-04-10 09:57:00,39.7,39.6,29.86,North,-999,-999.0,-999.0,99,-99.99,,,-99.99,meteohub,2013-04-10 14:57:00,
2013-04-10 10:03:00,39.7,39.6,29.88,North,-999,-999.0,-999.0,99,-99.99,,,-99.99,meteohub,2013-04-10 15:03:00,
2013-04-10 10:09:00,39.6,39.4,29.89,North,-999,-999.0,-999.0,99,-99.99,,,-99.99,meteohub,2013-04-10 15:09:00,
2013-04-10 10:15:00,39.6,39.4,29.89,North,-999,-999.0,-999.0,99,-99.99,,,-99.99,meteohub,2013-04-10 15:15:00,
2013-04-10 10:21:00,39.4,39.2,29.83,North,-999,-999.0,-999.0,99,-99.99,,,-99.99,meteohub,2013-04-10 15:21:00,
2013-04-10 10:27:00,39.6,39.4,29.85,North,-999,-999.0,-999.0,99,-99.99,,,-99.99,meteohub,2013-04-10 15:27:00,
2013-04-10 10:32:00,39.6,39.4,29.88,North,-999,-999.0,-999.0,99,-99.99,,,-99.99,meteohub,2013-04-10 15:32:00,
2013-04-10 10:40:00,39.7,39.6,29.86,North,-999,-999.0,-999.0,99,-99.99,,,-99.99,meteohub,2013-04-10 15:40:00,
2013-04-10 10:46:00,39.7,39.6,29.86,North,-999,-999.0,-999.0,99,-99.99,,,-99.99,meteohub,2013-04-10 15:46:00,
2013-04-10 10:52:00,39.7,39.6,29.85,North,-999,-999.0,-999.0,99,-99.99,,,-99.99,meteohub,2013-04-10 15:52:00,
2013-04-10 10:57:00,39.9,39.7,29.83,North,-999,-999.0,-999.0,99,-99.99,,,-99.99,meteohub,2013-04-10 15:57:00,
2013-04-10 11:02:00,39.7,39.6,29.81,North,-999,-999.0,-999.0,99,-99.99,,,-99.99,meteohub,2013-04-10 16:02:00,
2013-04-10 11:07:00,40.1,39.9,29.81,North,-999,-999.0,-999.0,99,-99.99,,,-99.99,meteohub,2013-04-10 16:07:00,
2013-04-10 11:12:00,40.1,39.9,29.82,North,-999,-999.0,-999.0,99,-99.99,,,-99.99,meteohub,2013-04-10 16:12:00,
2013-04-10 11:20:00,40.5,40.3,29.83,North,-999,-999.0,-999.0,99,-99.99,,,-99.99,meteohub,2013-04-10 16:20:00,
2013-04-10 11:26:00,40.5,40.3,29.83,North,-999,-999.0,-999.0,99,-99.99,,,-99.99,meteohub,2013-04-10 16:26:00,
2013-04-10 11:32:00,40.5,40.3,29.84,North,-999,-999.0,-999.0,99,-99.99,,,-99.99,meteohub,2013-04-10 16:32:00,
2013-04-10 11:37:00,40.1,39.9,29.83,North,-999,-999.0,-999.0,99,-99.99,,,-99.99,meteohub,2013-04-10 16:37:00,
2013-04-10 11:42:00,40.1,39.9,29.81,North,-999,-999.0,-999.0,99,-99.99,,,-99.99,meteohub,2013-04-10 16:42:00,
2013-04-10 11:48:00,40.6,40.5,29.81,North,-999,-999.0,-999.0,99,-99.99,,,-99.99,meteohub,2013-04-10 16:48:00,
2013-04-10 11:54:00,40.6,40.5,29.82,North,-999,-999.0,-999.0,99,-99.99,,,-99.99,meteohub,2013-04-10 16:54:00,
2013-04-10 12:00:00,40.3,40.1,29.85,North,-999,-999.0,-999.0,99,-99.99,,,-99.99,meteohub,2013-04-10 17:00:00,
2013-04-10 12:07:00,40.5,40.3,29.83,North,-999,-999.0,-999.0,99,-99.99,,,-99.99,meteohub,2013-04-10 17:07:00,
2013-04-10 12:12:00,40.5,40.3,29.83,North,-999,-999.0,-999.0,99,-99.99,,,-99.99,meteohub,2013-04-10 17:12:00,
2013-04-10 12:17:00,39.9,39.7,29.81,North,-999,-999.0,-999.0,99,-99.99,,,-99.99,meteohub,2013-04-10 17:17:00,
2013-04-10 12:22:00,40.5,40.3,29.77,North,-999,-999.0,-999.0,99,-99.99,,,-99.99,meteohub,2013-04-10 17:22:00,
2013-04-10 12:28:00,40.8,40.6,29.82,North,-999,-999.0,-999.0,99,-99.99,,,-99.99,meteohub,2013-04-10 17:28:00,
2013-04-10 12:35:00,41.9,41.7,29.81,North,-999,-999.0,-999.0,99,-99.99,,,-99.99,meteohub,2013-04-10 17:35:00,
2013-04-10 12:41:00,41.7,41.5,29.81,North,-999,-999.0,-999.0,99,-99.99,,,-99.99,meteohub,2013-04-10 17:41:00,
2013-04-10 12:47:00,41.2,41.0,29.81,North,-999,-999.0,-999.0,99,-99.99,,,-99.99,meteohub,2013-04-10 17:47:00,
2013-04-10 12:52:00,41.4,41.2,29.81,North,-999,-999.0,-999.0,99,-99.99,,,-99.99,meteohub,2013-04-10 17:52:00,
2013-04-10 12:59:00,41.4,41.2,29.80,North,-999,-999.0,-999.0,99,-99.99,,,-99.99,meteohub,2013-04-10 17:59:00,
2013-04-10 13:05:00,41.2,41.0,29.78,North,-999,-999.0,-999.0,99,-99.99,,,-99.99,meteohub,2013-04-10 18:05:00,
2013-04-10 13:12:00,41.0,40.8,29.79,North,-999,-999.0,-999.0,99,-99.99,,,-99.99,meteohub,2013-04-10 18:12:00,
2013-04-10 13:17:00,40.8,40.6,29.78,North,-999,-999.0,-999.0,99,-99.99,,,-99.99,meteohub,2013-04-10 18:17:00,
2013-04-10 13:24:00,41.4,41.2,29.77,North,-999,-999.0,-999.0,99,-99.99,,,-99.99,meteohub,2013-04-10 18:24:00,
2013-04-10 13:30:00,41.0,40.8,29.77,North,-999,-999.0,-999.0,99,-99.99,,,-99.99,meteohub,2013-04-10 18:30:00,
2013-04-10 13:36:00,40.6,40.5,29.77,North,-999,-999.0,-999.0,99,-99.99,,,-99.99,meteohub,2013-04-10 18:36:00,
2013-04-10 13:42:00,40.6,40.5,29.78,North,-999,-999.0,-999.0,99,-99.99,,,-99.99,meteohub,2013-04-10 18:42:00,
2013-04-10 13:48:00,40.8,40.6,29.80,North,-999,-999.0,-999.0,99,-99.99,,,-99.99,meteohub,2013-04-10 18:48:00,
2013-04-10 13:54:00,41.0,40.8,29.81,North,-999,-999.0,-999.0,99,-99.99,,,-99.99,meteohub,2013-04-10 18:54:00,
2013-04-10 14:01:00,40.8,40.6,29.82,North,-999,-999.0,-999.0,99,-99.99,,,-99.99,meteohub,2013-04-10 19:01:00,
2013-04-10 14:07:00,40.5,40.3,29.81,North,-999,-999.0,-999.0,99,-99.99,,,-99.99,meteohub,2013-04-10 19:07:00,
2013-04-10 14:12:00,40.3,40.1,29.80,North,-999,-999.0,-999.0,99,-99.99,,,-99.99,meteohub,2013-04-10 19:12:00,
2013-04-10 14:17:00,40.3,40.1,29.80,North,-999,-999.0,-999.0,99,-99.99,,,-99.99,meteohub,2013-04-10 19:17:00,
2013-04-10 14:22:00,40.1,39.9,29.80,North,-999,-999.0,-999.0,99,-99.99,,,-99.99,meteohub,2013-04-10 19:22:00,
2013-04-10 14:27:00,39.9,39.7,29.80,North,-999,-999.0,-999.0,99,-99.99,,,-99.99,meteohub,2013-04-10 19:27:00,
2013-04-10 14:32:00,39.9,39.7,29.80,North,-999,-999.0,-999.0,99,-99.99,,,-99.99,meteohub,2013-04-10 19:32:00,
2013-04-10 14:37:00,39.7,39.6,29.81,North,-999,-999.0,-999.0,99,-99.99,,,-99.99,meteohub,2013-04-10 19:37:00,
2013-04-10 14:43:00,39.7,39.6,29.80,North,-999,-999.0,-999.0,99,-99.99,,,-99.99,meteohub,2013-04-10 19:43:00,
2013-04-10 14:50:00,39.6,39.4,29.80,North,-999,-999.0,-999.0,99,-99.99,,,-99.99,meteohub,2013-04-10 19:50:00,
2013-04-10 14:56:00,39.2,39.0,29.81,North,-999,-999.0,-999.0,99,-99.99,,,-99.99,meteohub,2013-04-10 19:56:00,
2013-04-10 15:02:00,39.2,39.0,29.82,North,-999,-999.0,-999.0,99,-99.99,,,-99.99,meteohub,2013-04-10 20:02:00,
2013-04-10 15:08:00,39.0,38.8,29.77,North,-999,-999.0,-999.0,99,-99.99,,,-99.99,meteohub,2013-04-10 20:08:00,
2013-04-10 15:15:00,39.0,38.8,29.76,North,-999,-999.0,-999.0,99,-99.99,,,-99.99,meteohub,2013-04-10 20:15:00,
2013-04-10 15:21:00,39.0,38.8,29.78,North,-999,-999.0,-999.0,99,-99.99,,,-99.99,meteohub,2013-04-10 20:21:00,
2013-04-10 15:27:00,39.0,38.8,29.77,North,-999,-999.0,-999.0,99,-99.99,,,-99.99,meteohub,2013-04-10 20:27:00,
2013-04-10 15:33:00,39.2,39.0,29.75,North,-999,-999.0,-999.0,99,-99.99,,,-99.99,meteohub,2013-04-10 20:33:00,
2013-04-10 15:39:00,39.4,39.2,29.75,North,-999,-999.0,-999.0,99,-99.99,,,-99.99,meteohub,2013-04-10 20:39:00,
2013-04-10 15:46:00,47.7,34.5,29.83,North,-999,-999.0,-999.0,60,-99.99,,,-99.99,meteohub,2013-04-10 20:46:00,
2013-04-10 15:52:00,39.7,39.6,29.77,North,-999,-999.0,-999.0,99,-99.99,,,-99.99,meteohub,2013-04-10 20:52:00,
2013-04-10 15:57:00,39.7,39.6,29.76,North,-999,-999.0,-999.0,99,-99.99,,,-99.99,meteohub,2013-04-10 20:57:00,
2013-04-10 16:05:00,39.9,39.7,29.75,North,-999,-999.0,-999.0,99,-99.99,,,-99.99,meteohub,2013-04-10 21:05:00,
2013-04-10 16:11:00,39.7,39.6,29.76,North,-999,-999.0,-999.0,99,-99.99,,,-99.99,meteohub,2013-04-10 21:11:00,
2013-04-10 16:17:00,39.6,39.4,29.74,North,-999,-999.0,-999.0,99,-99.99,,,-99.99,meteohub,2013-04-10 21:17:00,
2013-04-10 16:22:00,39.7,39.6,29.72,North,-999,-999.0,-999.0,99,-99.99,,,-99.99,meteohub,2013-04-10 21:22:00,
2013-04-10 16:27:00,39.7,39.6,29.71,North,-999,-999.0,-999.0,99,-99.99,,,-99.99,meteohub,2013-04-10 21:27:00,
2013-04-10 16:33:00,39.9,39.7,29.72,North,-999,-999.0,-999.0,99,-99.99,,,-99.99,meteohub,2013-04-10 21:33:00,
2013-04-10 16:39:00,40.1,39.9,29.73,North,-999,-999.0,-999.0,99,-99.99,,,-99.99,meteohub,2013-04-10 21:39:00,
2013-04-10 16:45:00,40.1,39.9,29.73,North,-999,-999.0,-999.0,99,-99.99,,,-99.99,meteohub,2013-04-10 21:45:00,
2013-04-10 16:51:00,40.3,40.1,29.73,North,-999,-999.0,-999.0,99,-99.99,,,-99.99,meteohub,2013-04-10 21:51:00,
2013-04-10 16:57:00,40.3,40.1,29.73,North,-999,-999.0,-999.0,99,-99.99,,,-99.99,meteohub,2013-04-10 21:57:00,
2013-04-10 17:02:00,40.5,40.3,29.74,North,-999,-999.0,-999.0,99,-99.99,,,-99.99,meteohub,2013-04-10 22:02:00,
2013-04-10 17:09:00,40.5,40.3,29.73,North,-999,-999.0,-999.0,99,-99.99,,,-99.99,meteohub,2013-04-10 22:09:00,
2013-04-10 17:15:00,40.5,40.3,29.73,North,-999,-999.0,-999.0,99,-99.99,,,-99.99,meteohub,2013-04-10 22:15:00,
2013-04-10 17:21:00,40.6,40.5,29.73,North,-999,-999.0,-999.0,99,-99.99,,,-99.99,meteohub,2013-04-10 22:21:00,
2013-04-10 17:27:00,40.5,40.3,29.72,North,-999,-999.0,-999.0,99,-99.99,,,-99.99,meteohub,2013-04-10 22:27:00,
2013-04-10 17:32:00,40.5,40.3,29.75,North,-999,-999.0,-999.0,99,-99.99,,,-99.99,meteohub,2013-04-10 22:32:00,
2013-04-10 17:40:00,40.6,40.5,29.73,North,-999,-999.0,-999.0,99,-99.99,,,-99.99,meteohub,2013-04-10 22:40:00,
2013-04-10 17:46:00,40.6,40.5,29.72,North,-999,-999.0,-999.0,99,-99.99,,,-99.99,meteohub,2013-04-10 22:46:00,
2013-04-10 17:52:00,40.6,40.5,29.73,North,-999,-999.0,-999.0,99,-99.99,,,-99.99,meteohub,2013-04-10 22:52:00,
2013-04-10 17:57:00,40.5,40.3,29.73,North,-999,-999.0,-999.0,99,-99.99,,,-99.99,meteohub,2013-04-10 22:57:00,
2013-04-10 18:04:00,40.5,40.3,29.71,North,-999,-999.0,-999.0,99,-99.99,,,-99.99,meteohub,2013-04-10 23:04:00,
2013-04-10 18:10:00,40.6,40.5,29.72,North,-999,-999.0,-999.0,99,-99.99,,,-99.99,meteohub,2013-04-10 23:10:00,
2013-04-10 18:16:00,40.8,40.6,29.73,North,-999,-999.0,-999.0,99,-99.99,,,-99.99,meteohub,2013-04-10 23:16:00,
2013-04-10 18:22:00,40.8,40.6,29.73,North,-999,-999.0,-999.0,99,-99.99,,,-99.99,meteohub,2013-04-10 23:22:00,
2013-04-10 18:27:00,40.8,40.6,29.73,North,-999,-999.0,-999.0,99,-99.99,,,-99.99,meteohub,2013-04-10 23:27:00,
2013-04-10 18:32:00,40.8,40.6,29.73,North,-999,-999.0,-999.0,99,-99.99,,,-99.99,meteohub,2013-04-10 23:32:00,
2013-04-10 18:37:00,40.8,40.6,29.72,North,-999,-999.0,-999.0,99,-99.99,,,-99.99,meteohub,2013-04-10 23:37:00,
2013-04-10 18:42:00,41.0,40.8,29.73,North,-999,-999.0,-999.0,99,-99.99,,,-99.99,meteohub,2013-04-10 23:42:00,
2013-04-10 18:47:00,41.0,40.8,29.73,North,-999,-999.0,-999.0,99,-99.99,,,-99.99,meteohub,2013-04-10 23:47:00,
2013-04-10 18:53:00,40.8,40.6,29.73,North,-999,-999.0,-999.0,99,-99.99,,,-99.99,meteohub,2013-04-10 23:53:00,
2013-04-10 19:00:00,41.0,40.8,29.73,North,-999,-999.0,-999.0,99,-99.99,,,-99.99,meteohub,2013-04-11 00:00:00,
2013-04-10 19:06:00,41.0,40.8,29.73,North,-999,-999.0,-999.0,99,-99.99,,,-99.99,meteohub,2013-04-11 00:06:00,
2013-04-10 19:12:00,40.8,40.6,29.73,North,-999,-999.0,-999.0,99,-99.99,,,-99.99,meteohub,2013-04-11 00:12:00,
2013-04-10 19:18:00,40.6,40.5,29.75,North,-999,-999.0,-999.0,99,-99.99,,,-99.99,meteohub,2013-04-11 00:18:00,
2013-04-10 19:24:00,40.8,40.6,29.74,North,-999,-999.0,-999.0,99,-99.99,,,-99.99,meteohub,2013-04-11 00:24:00,
2013-04-10 19:30:00,40.6,40.5,29.75,North,-999,-999.0,-999.0,99,-99.99,,,-99.99,meteohub,2013-04-11 00:30:00,
2013-04-10 19:36:00,40.3,40.1,29.75,North,-999,-999.0,-999.0,99,-99.99,,,-99.99,meteohub,2013-04-11 00:36:00,
2013-04-10 19:42:00,40.5,40.3,29.75,North,-999,-999.0,-999.0,99,-99.99,,,-99.99,meteohub,2013-04-11 00:42:00,
2013-04-10 19:49:00,40.1,39.9,29.75,North,-999,-999.0,-999.0,99,-99.99,,,-99.99,meteohub,2013-04-11 00:49:00,
2013-04-10 19:55:00,39.9,39.7,29.74,North,-999,-999.0,-999.0,99,-99.99,,,-99.99,meteohub,2013-04-11 00:55:00,
2013-04-10 20:01:00,39.7,39.6,29.74,North,-999,-999.0,-999.0,99,-99.99,,,-99.99,meteohub,2013-04-11 01:01:00,
2013-04-10 20:07:00,39.9,39.7,29.74,North,-999,-999.0,-999.0,99,-99.99,,,-99.99,meteohub,2013-04-11 01:07:00,
2013-04-10 20:14:00,39.9,39.7,29.74,North,-999,-999.0,-999.0,99,-99.99,,,-99.99,meteohub,2013-04-11 01:14:00,
2013-04-10 20:20:00,39.7,39.6,29.74,North,-999,-999.0,-999.0,99,-99.99,,,-99.99,meteohub,2013-04-11 01:20:00,
2013-04-10 20:27:00,39.7,39.6,29.75,North,-999,-999.0,-999.0,99,-99.99,,,-99.99,meteohub,2013-04-11 01:27:00,
2013-04-10 20:32:00,39.7,39.6,29.74,North,-999,-999.0,-999.0,99,-99.99,,,-99.99,meteohub,2013-04-11 01:32:00,
2013-04-10 20:38:00,39.6,39.4,29.74,North,-999,-999.0,-999.0,99,-99.99,,,-99.99,meteohub,2013-04-11 01:38:00,
2013-04-10 20:44:00,39.6,39.4,29.74,North,-999,-999.0,-999.0,99,-99.99,,,-99.99,meteohub,2013-04-11 01:44:00,
2013-04-10 20:50:00,39.6,39.4,29.74,North,-999,-999.0,-999.0,99,-99.99,,,-99.99,meteohub,2013-04-11 01:50:00,
2013-04-10 20:56:00,39.6,39.4,29.75,North,-999,-999.0,-999.0,99,-99.99,,,-99.99,meteohub,2013-04-11 01:56:00,
2013-04-10 21:02:00,39.6,39.4,29.74,North,-999,-999.0,-999.0,99,-99.99,,,-99.99,meteohub,2013-04-11 02:02:00,
2013-04-10 21:08:00,39.6,39.4,29.75,North,-999,-999.0,-999.0,99,-99.99,,,-99.99,meteohub,2013-04-11 02:08:00,
2013-04-10 21:15:00,39.6,39.4,29.74,North,-999,-999.0,-999.0,99,-99.99,,,-99.99,meteohub,2013-04-11 02:15:00,
2013-04-10 21:21:00,39.6,39.4,29.73,North,-999,-999.0,-999.0,99,-99.99,,,-99.99,meteohub,2013-04-11 02:21:00,
2013-04-10 21:27:00,39.6,39.4,29.75,North,-999,-999.0,-999.0,99,-99.99,,,-99.99,meteohub,2013-04-11 02:27:00,
2013-04-10 21:32:00,39.6,39.4,29.74,North,-999,-999.0,-999.0,99,-99.99,,,-99.99,meteohub,2013-04-11 02:32:00,
2013-04-10 21:37:00,39.4,39.2,29.75,North,-999,-999.0,-999.0,99,-99.99,,,-99.99,meteohub,2013-04-11 02:37:00,
2013-04-10 21:43:00,39.4,39.2,29.75,North,-999,-999.0,-999.0,99,-99.99,,,-99.99,meteohub,2013-04-11 02:43:00,
2013-04-10 21:49:00,39.4,39.2,29.75,North,-999,-999.0,-999.0,99,-99.99,,,-99.99,meteohub,2013-04-11 02:49:00,
2013-04-10 21:55:00,39.4,39.2,29.75,North,-999,-999.0,-999.0,99,-99.99,,,-99.99,meteohub,2013-04-11 02:55:00,
2013-04-10 22:02:00,39.4,39.2,29.75,North,-999,-999.0,-999.0,99,-99.99,,,-99.99,meteohub,2013-04-11 03:02:00,
2013-04-10 22:07:00,39.2,39.0,29.75,North,-999,-999.0,-999.0,99,-99.99,,,-99.99,meteohub,2013-04-11 03:07:00,
2013-04-10 22:12:00,39.2,39.0,29.76,North,-999,-999.0,-999.0,99,-99.99,,,-99.99,meteohub,2013-04-11 03:12:00,
2013-04-10 22:17:00,39.2,39.0,29.77,North,-999,-999.0,-999.0,99,-99.99,,,-99.99,meteohub,2013-04-11 03:17:00,
2013-04-10 22:22:00,38.8,38.7,29.76,North,-999,-999.0,-999.0,99,-99.99,,,-99.99,meteohub,2013-04-11 03:22:00,
2013-04-10 22:27:00,38.5,38.3,29.76,North,-999,-999.0,-999.0,99,-99.99,,,-99.99,meteohub,2013-04-11 03:27:00,
2013-04-10 22:32:00,38.3,38.1,29.77,North,-999,-999.0,-999.0,99,-99.99,,,-99.99,meteohub,2013-04-11 03:32:00,
2013-04-10 22:39:00,38.1,37.9,29.78,North,-999,-999.0,-999.0,99,-99.99,,,-99.99,meteohub,2013-04-11 03:39:00,
2013-04-10 22:45:00,37.9,37.8,29.78,North,-999,-999.0,-999.0,99,-99.99,,,-99.99,meteohub,2013-04-11 03:45:00,
2013-04-10 22:51:00,37.6,37.4,29.78,North,-999,-999.0,-999.0,99,-99.99,,,-99.99,meteohub,2013-04-11 03:51:00,
2013-04-10 22:57:00,37.0,36.9,29.77,North,-999,-999.0,-999.0,99,-99.99,,,-99.99,meteohub,2013-04-11 03:57:00,
2013-04-10 23:00:00,36.7,36.5,29.77,North,-999,-999.0,-999.0,99,-99.99,,,-99.99,meteohub,2013-04-11 04:00:00,
2013-04-10 23:02:00,36.7,36.5,29.77,North,-999,-999.0,-999.0,99,-99.99,,,-99.99,meteohub,2013-04-11 04:02:00,
2013-04-10 23:07:00,36.5,36.3,29.77,North,-999,-999.0,-999.0,99,-99.99,,,-99.99,meteohub,2013-04-11 04:07:00,
2013-04-10 23:09:00,36.5,36.3,29.78,North,-999,-999.0,-999.0,99,-99.99,,,-99.99,meteohub,2013-04-11 04:09:00,
2013-04-10 23:15:00,36.3,36.1,29.77,North,-999,-999.0,-999.0,99,-99.99,,,-99.99,meteohub,2013-04-11 04:15:00,
2013-04-10 23:22:00,36.1,36.0,29.77,North,-999,-999.0,-999.0,99,-99.99,,,-99.99,meteohub,2013-04-11 04:22:00,
2013-04-10 23:25:00,36.1,36.0,29.76,North,-999,-999.0,-999.0,99,-99.99,,,-99.99,meteohub,2013-04-11 04:25:00,
2013-04-10 23:31:00,36.0,35.8,29.76,North,-999,-999.0,-999.0,99,-99.99,,,-99.99,meteohub,2013-04-11 04:31:00,
2013-04-10 23:37:00,36.0,35.8,29.76,North,-999,-999.0,-999.0,99,-99.99,,,-99.99,meteohub,2013-04-11 04:37:00,
2013-04-10 23:42:00,35.8,35.6,29.76,North,-999,-999.0,-999.0,99,-99.99,,,-99.99,meteohub,2013-04-11 04:42:00,
2013-04-10 23:49:00,35.6,35.4,29.76,North,-999,-999.0,-999.0,99,-99.99,,,-99.99,meteohub,2013-04-11 04:49:00,
2013-04-10 23:55:00,35.8,35.6,29.76,North,-999,-999.0,-999.0,99,-99.99,,,-99.99,meteohub,2013-04-11 04:55:00,